TimeEST,TemperatureF,Dew PointF,Humidity,Sea Level PressureIn,VisibilityMPH,Wind Direction,Wind SpeedMPH,Gust SpeedMPH,PrecipitationIn,Events,Conditions,WindDirDegrees,DateUTC
12:14 AM,34.7,30.7,85,29.87,10.0,SSW,10.4,19.6,N/A,,Overcast,200,2013-11-26 05:14:00
12:35 AM,33.4,30.0,87,29.86,10.0,South,11.5,18.4,N/A,,Overcast,190,2013-11-26 05:35:00
12:55 AM,34.3,30.9,87,29.86,10.0,SSW,12.7,-,N/A,,Overcast,200,2013-11-26 05:55:00
1:15 AM,34.7,31.1,87,29.86,10.0,South,10.4,16.1,N/A,,Overcast,190,2013-11-26 06:15:00
1:34 AM,33.6,30.4,88,29.86,10.0,South,9.2,20.7,N/A,Snow,Light Snow,190,2013-11-26 06:34:00
1:55 AM,33.4,30.0,87,29.86,10.0,South,16.1,21.9,N/A,,Overcast,190,2013-11-26 06:55:00
2:15 AM,34.7,31.1,87,29.87,10.0,SSW,11.5,18.4,N/A,,Overcast,200,2013-11-26 07:15:00
2:35 AM,33.8,30.2,87,29.87,10.0,SSW,8.1,-,N/A,,Overcast,200,2013-11-26 07:35:00
2:55 AM,34.5,31.1,87,29.88,10.0,SSW,8.1,-,N/A,,Overcast,210,2013-11-26 07:55:00
3:15 AM,34.5,31.1,87,29.87,10.0,SSW,6.9,-,N/A,,Overcast,200,2013-11-26 08:15:00
3:35 AM,34.7,31.1,87,29.87,10.0,SW,6.9,-,N/A,,Overcast,220,2013-11-26 08:35:00
3:55 AM,36.1,30.7,81,29.87,10.0,WSW,5.8,18.4,N/A,,Overcast,250,2013-11-26 08:55:00
4:15 AM,37.2,29.5,74,29.88,10.0,West,9.2,17.3,N/A,,Overcast,270,2013-11-26 09:15:00
4:35 AM,37.0,29.1,73,29.88,10.0,West,8.1,16.1,N/A,,Overcast,260,2013-11-26 09:35:00
4:55 AM,36.9,28.9,73,29.88,10.0,WSW,6.9,-,N/A,,Overcast,240,2013-11-26 09:55:00
5:15 AM,35.8,30.6,81,29.89,7.0,SW,5.8,-,N/A,Snow,Light Snow,220,2013-11-26 10:15:00
5:35 AM,35.8,32.0,86,29.89,10.0,SW,6.9,-,N/A,,Overcast,220,2013-11-26 10:35:00
5:54 AM,35.8,32.2,87,29.89,10.0,SSW,9.2,-,N/A,,Overcast,200,2013-11-26 10:54:00
6:15 AM,35.8,32.0,86,29.89,10.0,Calm,Calm,-,N/A,,Overcast,0,2013-11-26 11:15:00
6:35 AM,35.8,29.3,77,29.89,10.0,North,3.5,-,N/A,,Overcast,350,2013-11-26 11:35:00
6:55 AM,33.4,30.2,88,29.89,10.0,ENE,4.6,-,N/A,,Overcast,70,2013-11-26 11:55:00
7:15 AM,33.4,29.8,87,29.90,7.0,NNE,3.5,-,N/A,Snow,Light Snow,20,2013-11-26 12:15:00
7:34 AM,33.3,29.3,85,29.90,7.0,NE,4.6,-,N/A,Snow,Light Snow,50,2013-11-26 12:34:00
7:55 AM,33.3,29.3,85,29.90,10.0,ENE,3.5,-,N/A,,Overcast,60,2013-11-26 12:55:00
8:15 AM,33.3,30.6,90,29.91,10.0,Calm,Calm,-,N/A,Snow,Light Snow,0,2013-11-26 13:15:00
8:34 AM,33.3,30.7,90,29.91,10.0,Calm,Calm,-,N/A,,Overcast,0,2013-11-26 13:34:00
8:55 AM,33.3,30.7,90,29.91,7.0,Calm,Calm,-,N/A,,Overcast,0,2013-11-26 13:55:00
9:15 AM,33.3,30.2,89,29.92,7.0,Calm,Calm,-,N/A,Snow,Light Snow,0,2013-11-26 14:15:00
9:34 AM,33.3,27.5,79,29.93,10.0,Calm,Calm,-,N/A,,Overcast,0,2013-11-26 14:34:00
9:55 AM,33.3,27.0,78,29.93,7.0,NW,4.6,-,N/A,Snow,Light Snow,320,2013-11-26 14:55:00
10:15 AM,33.3,24.8,71,29.92,10.0,WNW,10.4,-,N/A,,Overcast,300,2013-11-26 15:15:00
10:35 AM,31.8,23.7,72,29.92,10.0,NW,6.9,-,N/A,,Overcast,320,2013-11-26 15:35:00
10:55 AM,31.1,23.9,75,29.92,10.0,NNW,5.8,-,N/A,,Overcast,330,2013-11-26 15:55:00
11:15 AM,30.6,24.1,77,29.92,10.0,NNW,5.8,-,N/A,,Overcast,340,2013-11-26 16:15:00
11:35 AM,30.0,24.1,79,29.93,10.0,NNW,5.8,-,N/A,Snow,Light Snow,330,2013-11-26 16:35:00
11:55 AM,29.3,23.4,78,29.94,10.0,NW,4.6,-,N/A,,Overcast,310,2013-11-26 16:55:00
12:15 PM,29.1,23.4,79,29.93,7.0,NW,8.1,-,N/A,,Overcast,320,2013-11-26 17:15:00
12:35 PM,28.9,23.5,80,29.92,5.0,NNW,6.9,-,N/A,Snow,Light Snow,330,2013-11-26 17:35:00
12:55 PM,28.9,23.9,81,29.91,3.0,NNW,4.6,-,N/A,Snow,Light Snow,330,2013-11-26 17:55:00
1:15 PM,28.8,24.8,85,29.91,1.5,Calm,Calm,-,N/A,Snow,Light Snow,0,2013-11-26 18:15:00
1:35 PM,28.8,25.7,88,29.93,2.0,Calm,Calm,-,N/A,Snow,Light Snow,0,2013-11-26 18:35:00
1:55 PM,28.8,24.4,84,29.93,4.0,North,5.8,-,N/A,Snow,Light Snow,350,2013-11-26 18:55:00
2:15 PM,28.4,24.8,86,29.93,1.5,North,4.6,-,N/A,Snow,Light Snow,350,2013-11-26 19:15:00
2:35 PM,28.4,25.2,88,29.92,1.8,North,11.5,-,N/A,Snow,Light Snow,350,2013-11-26 19:35:00
2:55 PM,28.4,24.8,86,29.92,1.0,North,11.5,18.4,N/A,Snow,Light Snow,360,2013-11-26 19:55:00
3:15 PM,27.7,23.9,86,29.93,1.8,NNW,8.1,17.3,N/A,Snow,Light Snow,340,2013-11-26 20:15:00
3:35 PM,26.4,22.8,86,29.94,2.0,North,8.1,-,N/A,Snow,Light Snow,360,2013-11-26 20:35:00
3:55 PM,26.1,22.6,87,29.95,1.8,North,11.5,18.4,N/A,Snow,Light Snow,360,2013-11-26 20:55:00
4:15 PM,26.1,22.1,85,29.95,3.0,North,8.1,17.3,N/A,Snow,Light Snow,360,2013-11-26 21:15:00
4:35 PM,26.1,21.7,84,29.96,7.0,North,6.9,-,N/A,,Overcast,10,2013-11-26 21:35:00
4:55 PM,26.1,21.4,82,29.96,10.0,NNW,4.6,-,N/A,,Overcast,340,2013-11-26 21:55:00
5:14 PM,26.1,21.6,83,29.97,10.0,NNW,3.5,-,N/A,,Overcast,340,2013-11-26 22:14:00
5:35 PM,26.1,21.0,81,29.98,5.0,NNW,6.9,-,N/A,Snow,Light Snow,330,2013-11-26 22:35:00
5:55 PM,25.0,21.2,86,29.99,4.0,North,5.8,-,N/A,Snow,Light Snow,360,2013-11-26 22:55:00
6:14 PM,25.0,21.2,86,29.99,4.0,NNW,9.2,-,N/A,Snow,Light Snow,330,2013-11-26 23:14:00
6:35 PM,23.9,20.8,88,30.00,2.0,North,8.1,-,N/A,Snow,Light Snow,350,2013-11-26 23:35:00
6:55 PM,23.7,20.3,87,30.00,3.0,NNW,6.9,-,N/A,Snow,Light Snow,340,2013-11-26 23:55:00
7:14 PM,23.5,19.4,84,30.01,5.0,North,4.6,-,N/A,Snow,Light Snow,350,2013-11-27 00:14:00
7:35 PM,23.5,17.8,79,30.01,10.0,NNW,11.5,17.3,N/A,Snow,Light Snow,330,2013-11-27 00:35:00
7:55 PM,23.5,16.3,74,30.01,10.0,NNW,9.2,18.4,N/A,Snow,Light Snow,330,2013-11-27 00:55:00
8:15 PM,23.0,16.0,74,30.02,10.0,NW,10.4,16.1,N/A,Snow,Light Snow,320,2013-11-27 01:15:00
8:35 PM,22.3,15.6,76,30.02,5.0,NNW,9.2,19.6,N/A,Snow,Light Snow,330,2013-11-27 01:35:00
8:55 PM,22.1,15.1,74,30.02,7.0,WNW,8.1,-,N/A,Snow,Light Snow,300,2013-11-27 01:55:00
9:15 PM,22.1,15.1,74,30.02,7.0,NW,12.7,17.3,N/A,Snow,Light Snow,310,2013-11-27 02:15:00
9:35 PM,21.7,14.7,74,30.02,10.0,NW,6.9,-,N/A,,Overcast,320,2013-11-27 02:35:00
9:55 PM,21.9,14.0,72,30.03,10.0,WNW,4.6,-,N/A,,Overcast,300,2013-11-27 02:55:00
10:15 PM,21.9,13.8,71,30.03,10.0,NW,4.6,-,N/A,,Overcast,310,2013-11-27 03:15:00
10:35 PM,21.7,14.4,73,30.02,10.0,NW,6.9,-,N/A,,Overcast,310,2013-11-27 03:35:00
10:54 PM,21.7,15.3,76,30.02,7.0,NW,5.8,-,N/A,Snow,Light Snow,310,2013-11-27 03:54:00
11:15 PM,21.6,14.9,76,30.02,10.0,NNW,3.5,-,N/A,,Overcast,340,2013-11-27 04:15:00
11:34 PM,21.6,14.2,73,30.03,10.0,WNW,4.6,-,N/A,,Overcast,290,2013-11-27 04:34:00
11:55 PM,21.4,13.6,72,30.02,10.0,WNW,5.8,-,N/A,,Overcast,300,2013-11-27 04:55:00